Location: Cruquius
(52.3348°N, 4.6319°E)
Time: 04:01:12
(UTC+00:00)

Cosmos 2369 Rocket - Pass Details

Date: 12 May 2021
Orbit: 827 x 854 km, 71.0° (Epoch: 14 June)

Event Time Altitude Azimuth Distance (km) Brightness Sun altitude
Exits shadow 22:01:47 22° 129° (SE) 1,740 3.3 -16.3°
Maximum altitude 22:03:23 25° 103° (ESE) 1,615 3.3 -16.4°
Drops below altitude 10° 22:07:55 10° 50° (NE) 2,467 4.8 -16.6°
Sets 22:10:45 0° 38° (NE) 3,411 5.8 -16.8°
